Regional Weather Roundup
Issued by NWS

Home | Current Version | Previous Version | Graphics & Text | Print | Product List | Glossary On
Versions: 1 2 3 4 5 6 7 8 9 10 11 12 13 14 15 16 17 18 19 20 21 22 23 24 25 26 27 28 29 30 31 32 33 34 35 36 37 38 39 40 41 42 43 44 45 46 47 48 49 50
000
ASUS45 KBOU 220907
RWRCO

WEATHER ROUNDUP FOR COLORADO
NATIONAL WEATHER SERVICE DENVER/BOULDER CO
200 AM MST SAT NOV 22 2014

NOTE: "FAIR" INDICATES FEW OR NO CLOUDS BELOW 12000 FEET WITH NO
SIGNIFICANT WEATHER AND/OR OBSTRUCTIONS TO VISIBILITY.

COZ001>005-013-030-031-221000-
...NORTHWEST COLORADO...

CITY           SKY/WX    TMP DP  RH WIND       PRES   REMARKS
CRAIG          CLEAR     16  12  84 CALM      30.05R
HAYDEN         CLEAR     21  16  79 E8        30.03S WCI  12
MEEKER         CLEAR     24  18  77 VRB5      30.05S WCI  18
MOUNT WERNER   NOT AVBL
STEAMBOAT SPGS CLEAR     17  14  88 CALM      30.05R
WALDEN         CLEAR     21  12  68 SE9       30.00R WCI  11
$$

COZ006>008-011-221000-
...WEST CENTRAL VALLEYS...

CITY           SKY/WX    TMP DP  RH WIND       PRES   REMARKS
GRAND JUNCTION CLEAR     29  16  58 E6        30.09S WCI  23
MONTROSE       CLEAR     25  18  74 S6        30.12S WCI  18
EAGLE          PTCLDY    19  16  86 S5        30.11S WCI  13
RIFLE          CLEAR     23  18  81 CALM      30.11R
DELTA          CLEAR     26  17  67 CALM      30.12S
NUCLA          CLEAR     30  21  69 SE3       30.15R
$$

COZ017>023-064>068-221000-
...SOUTHWEST COLORADO...

CITY           SKY/WX    TMP DP  RH WIND       PRES   REMARKS
DURANGO        CLEAR     23  18  81 NW3       30.12S
CORTEZ         CLEAR     20  16  84 E3        30.12S
PAGOSA SPRINGS CLEAR     24  17  75 CALM      30.14S
TELLURIDE      PTCLDY    23  15  72 E5        30.16S WCI  17
WOLF CREEK PAS PTCLDY    18  12  79 SW15      30.15F WCI   3
$$

COZ009-010-012-014-032>034-037-058>063-221000-
...CENTRAL COLORADO...

CITY           SKY/WX    TMP DP  RH WIND       PRES   REMARKS
ASPEN          PTCLDY    19  11  70 S6        30.08S WCI  11
BUENA VISTA    CLEAR     19  11  72 W5        30.09S WCI  12
COPPER MTN     CLEAR     27   0  31 SW14G25   30.09S WCI  15
BERTHOUD PASS  FAIR      18  14  86 W30G41    30.05F WCI  -2
COTTONWOOD PAS CLEAR     32  12  43 CALM      30.08S
GUNNISON       PTCLDY    10   3  72 CALM      30.20R
KREMMLING      CLEAR     12   9  85 CALM      30.09R
LEADVILLE      PTCLDY     6   1  80 VRB3      30.07F
MONARCH PASS   PTCLDY    18  12  79 W26       30.22F WCI  -1
SALIDA         CLEAR     28  14  55 NW7       30.14F WCI  21
SUNLIGHT       CLEAR     23  18  80 CALM      30.11S
WILKERSON PASS PTCLDY    21   9  58 SW13G20   30.08F WCI   9
$$

COZ069>075-221000-
...SAN LUIS VALLEY/SANGRE DE CRISTO MOUNTAINS...

CITY           SKY/WX    TMP DP  RH WIND       PRES   REMARKS
ALAMOSA        PTCLDY    10   6  84 CALM      30.11F
LA VETA PASS   PTCLDY    25  16  68 S12G21    30.09F WCI  14
SAGUACHE       MOCLDY    23  14  68 N12       30.12F WCI  12
$$

COZ035-036-038>040-221000-
...NORTHERN COLORADO FRONT RANGE...

CITY           SKY/WX    TMP DP  RH WIND       PRES   REMARKS
DENVER INTL AP CLEAR     36  20  52 SW12      29.90F
DMNS CITY PARK   N/A     35  16  45 S5G10     29.90F WCI  31
AURORA         CLEAR     35  18  50 S16       29.91F WCI  25
FRONT RANGE AP CLEAR     37  23  56 S21       29.90F
ERIE MUNI ARPT CLEAR     28  20  70 S7        29.88F WCI  21
BOULDER MUN AP CLEAR     43  14  31 S8        29.87F
CENTENNIAL     CLEAR     38  15  39 SE5       29.92F
BROOMFIELD     CLEAR     36  14  41 SW3       29.90F
FORT COLLINS   CLEAR     34  21  60 S10       29.88F WCI  26
LONGMONT       CLEAR     38  19  45 SW5       29.89F
$$

COZ041-046-047-076>085-087-088-221000-
...PIKES PEAK/PALMER DIVIDE AND SOUTHERN FOOTHILLS...

CITY           SKY/WX    TMP DP  RH WIND       PRES   REMARKS
COLO. SPRINGS  CLEAR     26  18  71 N8        29.98F WCI  18
A. F. ACADEMY  CLEAR     22  14  71 N7        29.97F WCI  14
ELLICOTT       CLEAR     23  17  78 CALM      29.97F
FALCON         NOT AVBL
FORT CARSON    CLEAR     30  18  60 NW12      29.96F WCI  21
LIMON          CLEAR     17  13  84 N7        29.95F WCI   8
MONUMENT HILL  CLEAR     30  18  59 SW7       29.96F WCI  23
TRINIDAD       CLEAR     33  20  58 W14       30.00F WCI  23
$$

COZ042>045-048>051-090-091-221000-
...NORTHEAST COLORADO...

CITY           SKY/WX    TMP DP  RH WIND       PRES   REMARKS
GREELEY ARPT   CLEAR     21  12  68 CALM      29.89F
AKRON          CLEAR     39  20  46 SW14      29.89F
BURLINGTON     CLEAR     32  18  56 SW10      29.93F WCI  24
WRAY           CLEAR     28  19  69 SW8       29.89F WCI  19
STERLING       CLEAR     25  21  86 SW6       29.89S WCI  18
HOLYOKE        CLEAR     27  18  69 SW7       29.87F WCI  19
FORT MORGAN    CLEAR     25  21  84 W8        29.90F WCI  16
$$

COZ086-089-092>099-221000-
...SOUTHEAST COLORADO...

CITY           SKY/WX    TMP DP  RH WIND       PRES   REMARKS
PUEBLO         CLEAR     29  23  78 SW5       29.97F WCI  24
LA JUNTA       CLEAR     30  27  88 W8        29.97F WCI  22
LAMAR          PTCLDY    25  23  92 CALM      29.95F
SPRINGFIELD      N/A     30  26  85 W13       29.96F WCI  20
$$



USA.gov is the U.S. government's official web portal to all federal, state and local government web resources and services.